CW8896 Weather Reports


time (UTC)temp
F
wind
direction
speed
knots
gust
knots
rain 1hr
in
rain 24hr
in
rain mn
in
humidity
%
barometer
mb
20260507110004 68 168 0.9 3.5 0.00 0.00 0.00 57 1012.2
20260507105005 67 216 0.9 5.2 0.00 0.00 0.00 58 1012.2
20260507103005 69 121 0.9 3.5 0.00 0.00 0.00 53 1012.2
20260507102003 67 70 0.9 3.5 0.00 0.00 0.00 54 1012.3
20260507101004 66 49 0.9 2.6 0.00 0.00 0.00 58 1012.5
20260507100004 67 29 0.9 4.3 0.00 0.00 0.00 58 1012.6
20260507095004 67 72 0.9 4.3 0.00 0.00 0.00 58 1012.5
20260507094004 68 72 1.7 6.1 0.00 0.00 0.00 57 1012.6
20260507090005 65 39 0.9 4.3 0.00 0.00 0.00 61 1012.5
20260507085003 64 62 1.7 7.0 0.00 0.00 0.00 63 1012.5
20260507084004 64 72 0.9 3.5 0.00 0.00 0.00 65 1012.3
20260507082004 64 60 0.9 4.3 0.00 0.00 0.00 65 1012.4
20260507081004 63 64 1.7 6.1 0.00 0.00 0.00 66 1012.4
20260507074004 62 77 0.9 3.5 0.00 0.00 0.00 67 1012.4
20260507073005 63 131 0.0 1.7 0.00 0.00 0.00 66 1012.4
20260507072004 62 72 0.0 1.7 0.00 0.00 0.00 69 1012.4
20260507071004 61 68 0.0 1.7 0.00 0.00 0.00 70 1012.3
20260507070009 60 56 0.9 2.6 0.00 0.00 0.00 71 1012.4
20260507065006 61 60 0.0 1.7 0.00 0.00 0.00 71 1012.4
20260507064004 60 58 0.0 1.7 0.00 0.00 0.00 74 1012.3
20260507063004 59 56 0.0 1.7 0.00 0.00 0.00 76 1012.3
20260507062004 57 346 0.0 0.9 0.00 0.00 0.00 79 1012.3
20260507061004 56 327 0.0 0.9 0.00 0.00 0.00 81 1012.3
20260507060004 55 26 0.0 0.9 0.00 0.00 0.00 82 1012.3
20260507054004 52 298 0.0 1.7 0.00 0.00 0.00 86 1012.1
20260507052004 50 0 0.0 0.0 0.00 0.00 0.00 90 1011.9
20260507050005 48 0 0.0 0.0 0.00 0.00 0.00 91 1011.9
20260507045004 48 0 0.0 0.0 0.00 0.00 0.00 91 1011.8
20260507044003 48 0 0.0 0.0 0.00 0.00 0.00 91 1011.7
20260507042004 49 0 0.0 0.0 0.00 0.00 0.00 90 1011.6
20260507040004 49 0 0.0 0.0 0.00 0.00 0.00 89 1011.7
20260507035004 50 0 0.0 0.0 0.00 0.00 0.00 88 1011.7
20260507034004 50 329 0.0 0.9 0.00 0.00 0.00 88 1011.5
20260507033004 51 329 0.0 0.9 0.00 0.00 0.00 88 1011.6
20260507032003 51 0 0.0 0.0 0.00 0.00 0.00 86 1011.6
20260507031004 52 0 0.0 0.0 0.00 0.00 0.00 85 1011.5
20260507030004 52 0 0.0 0.0 0.00 0.00 0.00 84 1011.6
20260507025004 53 312 0.0 1.7 0.00 0.00 0.00 83 1011.4
20260507024003 53 316 0.0 1.7 0.00 0.00 0.00 82 1011.4
20260507023005 53 329 0.0 0.9 0.00 0.00 0.00 82 1011.3
20260507022004 53 330 0.0 1.7 0.00 0.00 0.00 83 1011.4
20260507021004 53 0 0.0 0.0 0.00 0.00 0.00 83 1011.4
20260507020004 53 336 0.0 0.9 0.00 0.00 0.00 82 1011.4
20260507015004 54 311 0.0 0.9 0.00 0.00 0.00 81 1011.4
20260507014004 54 304 0.0 2.6 0.00 0.00 0.00 82 1011.5
20260507013004 54 311 0.0 1.7 0.00 0.00 0.00 82 1011.3
20260507012004 53 306 0.0 1.7 0.00 0.00 0.00 84 1011.4
20260507011003 53 354 0.0 0.9 0.00 0.00 0.00 84 1011.8
20260507005004 53 94 0.0 0.9 0.00 0.00 0.00 84 1011.6
20260507004005 53 321 0.0 1.7 0.00 0.00 0.00 83 1011.7
20260507003004 54 349 0.0 3.5 0.00 0.00 0.00 82 1011.8
20260507002004 54 312 0.0 3.5 0.00 0.00 0.00 81 1011.9
20260507001003 53 301 0.0 1.7 0.00 0.00 0.00 82 1011.8
20260507000004 54 289 0.0 1.7 0.00 0.00 0.00 82 1012.0
20260506235003 54 307 0.0 0.9 0.00 0.00 0.00 82 1012.1
20260506234004 54 335 0.0 0.9 0.00 0.00 0.00 81 1012.1
20260506233005 54 310 0.0 2.6 0.00 0.00 0.00 80 1012.1
20260506232003 55 319 0.0 3.5 0.00 0.00 0.00 80 1012.1
20260506231004 55 311 0.0 4.3 0.00 0.00 0.00 79 1012.2
20260506230004 55 306 0.0 2.6 0.00 0.00 0.00 79 1012.0
20260506225004 55 324 0.0 2.6 0.00 0.01 0.00 78 1011.9
20260506224004 55 315 0.0 2.6 0.00 0.01 0.00 78 1011.8
20260506223004 56 308 0.9 3.5 0.00 0.02 0.00 77 1011.8
20260506222004 56 306 0.9 3.5 0.00 0.03 0.00 76 1011.7
20260506221004 56 312 0.0 3.5 0.00 0.06 0.00 76 1011.7
20260506220008 56 310 0.0 2.6 0.00 0.10 0.00 76 1011.6
20260506215003 56 261 0.0 0.9 0.00 0.13 0.10 77 1011.5
20260506212004 57 0 0.0 0.0 0.00 0.18 0.10 75 1011.6
20260506211004 57 295 0.0 0.9 0.00 0.19 0.10 74 1011.6
20260506210004 57 288 0.0 0.9 0.00 0.19 0.10 73 1011.6
20260506205004 58 319 0.0 3.5 0.00 0.20 0.10 72 1011.6
20260506204004 58 294 0.0 0.9 0.00 0.20 0.10 73 1011.6
20260506202003 58 287 0.0 0.9 0.00 0.22 0.10 71 1011.4
20260506201004 58 325 0.0 1.7 0.00 0.23 0.10 70 1011.4
20260506200004 58 76 0.0 0.9 0.00 0.25 0.10 70 1011.3
20260506195004 58 314 0.0 1.7 0.00 0.27 0.10 70 1011.2
20260506194004 59 354 0.0 0.9 0.00 0.28 0.10 68 1010.9
20260506193005 59 35 0.0 1.7 0.00 0.28 0.10 67 1010.6
20260506192003 59 335 0.0 6.1 0.00 0.28 0.10 67 1010.4
20260506190005 60 187 0.0 1.7 0.00 0.28 0.10 65 1010.0
20260506185004 60 200 0.0 1.7 0.00 0.28 0.10 63 1010.0
20260506184003 61 177 0.0 4.3 0.00 0.31 0.10 63 1009.9
20260506181004 62 327 0.0 2.6 0.00 0.31 0.10 61 1009.5
20260506180005 63 299 0.9 5.2 0.00 0.31 0.10 59 1009.3
20260506175004 64 307 1.7 7.8 0.00 0.31 0.10 57 1009.2
20260506174004 64 324 0.9 6.1 0.00 0.31 0.10 56 1009.0
20260506173004 65 323 0.9 6.1 0.00 0.31 0.10 55 1009.0
20260506172003 66 312 0.9 5.2 0.00 0.31 0.10 54 1008.8
20260506171003 66 307 1.7 7.0 0.00 0.31 0.10 53 1008.8
20260506170005 67 319 2.6 8.7 0.00 0.31 0.10 52 1008.8
20260506165003 68 308 2.6 7.0 0.00 0.31 0.10 52 1008.7
20260506164004 68 317 1.7 5.2 0.00 0.31 0.10 49 1008.6
20260506163004 68 309 2.6 7.8 0.00 0.31 0.10 49 1008.6
20260506162003 69 308 2.6 6.1 0.00 0.31 0.10 49 1008.3
20260506161004 69 319 0.9 7.0 0.00 0.32 0.10 49 1008.3
20260506160004 70 312 1.7 7.0 0.00 0.32 0.10 46 1008.4
20260506155004 70 310 1.7 7.0 0.00 0.32 0.10 46 1008.3
20260506154004 70 318 1.7 9.6 0.00 0.32 0.10 46 1008.4
20260506153004 70 312 1.7 7.8 0.00 0.32 0.10 46 1008.3
20260506152003 70 312 1.7 8.7 0.00 0.32 0.10 48 1008.4
20260506151004 70 310 0.9 5.2 0.00 0.32 0.10 48 1008.4
20260506150004 71 5 0.9 5.2 0.00 0.32 0.10 47 1008.3
20260506145004 72 330 0.9 6.1 0.00 0.32 0.10 42 1008.4
20260506144003 72 309 0.9 4.3 0.00 0.32 0.10 46 1008.4
20260506143005 72 342 0.9 3.5 0.00 0.32 0.10 45 1008.5
20260506142004 72 207 0.9 3.5 0.00 0.32 0.10 45 1008.5
20260506140005 71 307 0.9 8.7 0.00 0.32 0.10 48 1008.6
20260506135004 72 297 0.9 7.8 0.00 0.32 0.10 46 1008.8
20260506134004 72 301 0.9 7.8 0.00 0.32 0.10 41 1008.9
20260506133004 72 297 0.9 4.3 0.00 0.32 0.10 46 1008.8
20260506132005 71 301 0.9 3.5 0.00 0.32 0.10 44 1008.8
20260506131003 70 319 1.7 8.7 0.00 0.32 0.10 46 1008.9
20260506130005 68 317 1.7 7.8 0.00 0.32 0.10 52 1008.9
20260506124004 72 248 0.9 5.2 0.00 0.32 0.10 46 1009.0
20260506123004 71 300 0.9 6.1 0.00 0.32 0.10 49 1009.1
20260506122004 70 331 0.9 3.5 0.00 0.32 0.10 50 1009.2
20260506121003 69 312 0.9 4.3 0.00 0.32 0.10 52 1009.2
20260506115004 70 321 1.7 8.7 0.00 0.32 0.10 49 1009.2
20260506113004 69 311 1.7 6.1 0.00 0.32 0.10 53 1009.3
20260506112004 70 314 0.9 5.2 0.00 0.32 0.10 51 1009.3